FW4468 Weather Reports


time (UTC)temp
C
wind
direction
speed
KPH
gust
KPH
rain 1hr
cm
rain 24hr
cm
rain mn
cm
humidity
%
barometer
mb
20260904141503 10 198 0.0 0.0 0.00 0.00 0.00 78 1011.9
20260904140002 10 198 0.0 0.0 0.00 0.03 0.00 78 1011.9
20260904134600 10 198 0.0 0.0 0.00 0.03 0.00 78 1011.6
20260904133057 10 198 0.0 0.0 0.00 0.03 0.00 77 1011.3
20260904131629 10 198 0.0 0.0 0.00 0.03 0.00 77 1011.0
20260904130054 10 198 0.0 0.0 0.00 0.03 0.00 76 1010.9
20260904124553 10 198 0.0 0.0 0.00 0.03 0.00 76 1010.9
20260904123106 10 198 0.0 1.6 0.00 0.03 0.00 75 1011.0
20260904121551 10 198 0.0 0.0 0.00 0.03 0.00 73 1010.8
20260904120049 10 198 0.0 1.6 0.00 0.03 0.00 72 1010.8
20260904114547 10 198 0.0 0.0 0.00 0.05 0.00 71 1010.6
20260904113046 10 198 0.0 0.0 0.00 0.05 0.00 70 1010.6
20260904111552 10 198 0.0 0.0 0.00 0.05 0.00 69 1010.6
20260904110045 11 198 0.0 0.0 0.00 0.05 0.00 69 1010.7
20260904104540 11 198 0.0 0.0 0.00 0.10 0.00 69 1010.5
20260904103042 11 198 0.0 0.0 0.00 0.10 0.00 68 1010.4
20260904101544 11 198 0.0 0.0 0.00 0.10 0.00 69 1010.2
20260904100036 11 198 0.0 1.6 0.00 0.10 0.00 68 1010.2
20260904094538 11 198 0.0 0.0 0.00 0.10 0.00 68 1010.2
20260904093035 11 198 0.0 0.0 0.00 0.10 0.00 68 1010.1
20260904091535 11 199 0.0 0.0 0.00 0.10 0.00 67 1010.0
20260904090033 11 199 0.0 0.0 0.00 0.10 0.00 68 1010.3
20260904084531 11 199 0.0 0.0 0.00 0.10 0.00 68 1010.4
20260904083029 11 199 0.0 0.0 0.00 0.10 0.00 68 1010.5
20260904081525 11 198 0.0 0.0 0.00 0.10 0.00 68 1010.6
20260904080021 11 198 0.0 0.0 0.00 0.10 0.00 68 1010.5
20260904074521 11 198 0.0 0.0 0.00 0.10 0.00 68 1010.5
20260904073016 11 198 0.0 0.0 0.00 0.10 0.00 68 1010.4
20260904071527 11 198 0.0 0.0 0.00 0.10 0.00 68 1010.2
20260904070004 11 198 0.0 0.0 0.00 0.10 0.10 68 1010.2
20260904064502 11 198 0.0 0.0 0.00 0.10 0.10 68 1010.2
20260904063002 11 198 0.0 0.0 0.00 0.10 0.10 68 1010.1
20260904061603 11 198 0.0 0.0 0.00 0.10 0.10 68 1010.0
20260904061502 11 198 0.0 0.0 0.00 0.10 0.10 68 1009.9
20260904060113 11 198 0.0 0.0 0.00 0.10 0.10 67 1010.0
20260904054601 12 198 0.0 0.0 0.00 0.10 0.10 66 1009.9
20260904053057 12 198 0.0 0.0 0.00 0.10 0.10 65 1009.9
20260904051557 13 198 0.0 0.0 0.00 0.10 0.10 64 1010.1
20260904050055 13 198 0.0 3.2 0.00 0.10 0.10 62 1009.9
20260904044558 13 198 1.6 6.4 0.00 0.10 0.10 63 1010.1
20260904043054 13 202 0.0 1.6 0.00 0.10 0.10 64 1010.0
20260904041553 13 202 0.0 1.6 0.00 0.10 0.10 63 1010.0
20260904040053 13 202 0.0 6.4 0.00 0.10 0.10 62 1009.9
20260904034600 13 150 0.0 1.6 0.00 0.10 0.10 61 1009.8
20260904033048 14 173 0.0 0.0 0.00 0.10 0.10 59 1009.4
20260904031548 15 173 0.0 0.0 0.00 0.10 0.10 57 1009.2
20260904030048 15 173 0.0 4.8 0.00 0.10 0.10 56 1009.2
20260904024547 16 182 0.0 1.6 0.00 0.10 0.10 55 1009.1
20260904023045 16 182 0.0 1.6 0.00 0.10 0.10 54 1008.9
20260904021548 16 182 1.6 4.8 0.00 0.10 0.10 52 1008.8
20260904020045 17 209 0.0 4.8 0.00 0.10 0.10 52 1008.8
20260904014547 17 184 1.6 6.4 0.00 0.10 0.10 52 1008.8
20260904013043 17 222 0.0 4.8 0.00 0.10 0.10 54 1008.8
20260904011544 17 255 1.6 8.0 0.00 0.10 0.10 53 1008.8
20260904010051 17 229 1.6 6.4 0.00 0.10 0.10 53 1008.9
20260904004556 17 244 0.0 8.0 0.00 0.10 0.10 53 1008.7
20260904003042 18 262 3.2 14.5 0.00 0.10 0.10 51 1008.7
20260904001540 18 182 3.2 12.9 0.00 0.10 0.10 50 1008.8
20260904000056 18 238 0.0 12.9 0.00 0.10 0.10 51 1008.6
20260903234543 18 127 1.6 9.7 0.00 0.15 0.10 50 1008.7
20260903233038 18 136 0.0 8.0 0.00 0.15 0.10 49 1008.6
20260903231538 18 141 3.2 11.3 0.00 0.15 0.10 50 1008.7
20260903230137 18 178 4.8 14.5 0.00 0.15 0.10 48 1008.7
20260903224538 18 202 3.2 8.0 0.00 0.41 0.10 50 1008.8
20260903223041 18 253 0.0 8.0 0.00 0.41 0.10 53 1008.9
20260903221534 17 199 3.2 11.3 0.00 0.41 0.10 52 1008.9
20260903220040 18 169 4.8 12.9 0.00 0.41 0.10 53 1008.9
20260903214535 18 182 3.2 9.7 0.00 0.51 0.10 53 1008.7
20260903213037 18 180 0.0 8.0 0.00 0.51 0.10 53 1008.7
20260903211555 18 163 4.8 11.3 0.00 0.51 0.10 55 1008.7
20260903210026 17 173 3.2 16.1 0.00 0.51 0.10 54 1008.8
20260903204525 17 191 3.2 8.0 0.00 0.51 0.10 56 1008.7
20260903203023 17 203 1.6 14.5 0.00 0.51 0.10 56 1008.7
20260903201522 17 261 3.2 8.0 0.00 0.51 0.10 56 1008.7
20260903200020 17 216 0.0 11.3 0.00 0.51 0.10 60 1008.8
20260903194518 17 246 3.2 12.9 0.00 0.64 0.10 61 1008.8
20260903193016 16 214 3.2 12.9 0.00 0.64 0.10 59 1008.7
20260903191518 16 254 3.2 11.3 0.00 0.64 0.10 62 1008.6
20260903190015 16 279 3.2 14.5 0.00 0.64 0.10 61 1008.6
20260903184514 16 239 1.6 14.5 0.00 0.64 0.10 62 1008.7
20260903183013 16 240 0.0 12.9 0.00 0.64 0.10 62 1008.6
20260903181511 15 274 3.2 19.3 0.00 0.64 0.10 63 1008.6
20260903180007 15 240 3.2 16.1 0.00 0.64 0.10 63 1008.6
20260903174515 15 162 3.2 16.1 0.00 0.64 0.10 64 1008.4
20260903173005 14 182 3.2 19.3 0.00 0.64 0.10 64 1008.4
20260903171603 14 145 4.8 16.1 0.00 0.64 0.10 64 1008.5
20260903170111 14 121 0.0 9.7 0.00 0.64 0.10 66 1008.3
20260903164559 14 153 1.6 11.3 0.00 0.64 0.10 66 1008.1
20260903163056 14 158 0.0 16.1 0.00 0.64 0.10 66 1008.1
20260903161553 13 84 0.0 4.8 0.00 0.64 0.10 67 1008.2
20260903160050 13 166 0.0 8.0 0.00 0.64 0.10 68 1008.1
20260903154555 13 290 0.0 9.7 0.00 0.64 0.10 71 1008.1
20260903153053 12 46 0.0 4.8 0.00 0.64 0.10 72 1008.1
20260903151553 12 248 0.0 8.0 0.00 0.64 0.10 73 1008.1
20260903150052 12 133 0.0 4.8 0.00 0.64 0.10 73 1008.2
20260903144548 12 111 0.0 6.4 0.00 0.64 0.10 73 1008.0
20260903143045 12 159 0.0 4.8 0.00 0.64 0.10 72 1007.9